| time (UTC) | temp C | wind direction | speed KPH | gust KPH | rain 1hr cm | rain 24hr cm | rain mn cm | humidity % | barometer mb |
| 20260507101542 | 13 | 51 | 4.8 | 11.3 | 0.00 | 0.18 | 0.05 | 86 | 1011.5 |
| 20260507100039 | 13 | 51 | 3.2 | 11.3 | 0.00 | 0.18 | 0.05 | 85 | 1011.8 |
| 20260507094537 | 13 | 5 | 6.4 | 19.3 | 0.00 | 0.18 | 0.05 | 85 | 1011.5 |
| 20260507093047 | 13 | 327 | 3.2 | 14.5 | 0.00 | 0.18 | 0.05 | 85 | 1011.1 |
| 20260507091545 | 13 | 329 | 1.6 | 9.7 | 0.00 | 0.18 | 0.05 | 85 | 1011.2 |
| 20260507090041 | 13 | 275 | 3.2 | 16.1 | 0.00 | 0.18 | 0.05 | 87 | 1010.9 |
| 20260507084540 | 14 | 82 | 3.2 | 12.9 | 0.00 | 0.18 | 0.05 | 90 | 1011.0 |
| 20260507083038 | 14 | 0 | 1.6 | 4.8 | 0.00 | 0.18 | 0.05 | 92 | 1011.1 |
| 20260507081535 | 14 | 355 | 0.0 | 17.7 | 0.00 | 0.18 | 0.05 | 92 | 1010.5 |
| 20260507080040 | 14 | 19 | 1.6 | 6.4 | 0.00 | 0.18 | 0.05 | 91 | 1010.5 |
| 20260507074543 | 14 | 290 | 4.8 | 17.7 | 0.03 | 0.18 | 0.05 | 91 | 1010.4 |
| 20260507073035 | 15 | 263 | 4.8 | 12.9 | 0.03 | 0.18 | 0.05 | 92 | 1010.8 |
| 20260507071538 | 15 | 311 | 4.8 | 17.7 | 0.03 | 0.18 | 0.05 | 92 | 1010.6 |
| 20260507070044 | 15 | 290 | 3.2 | 11.3 | 0.03 | 0.18 | 0.05 | 92 | 1010.0 |
| 20260507064537 | 16 | 350 | 0.0 | 14.5 | 0.00 | 0.15 | 0.03 | 91 | 1009.5 |
| 20260507063040 | 16 | 300 | 4.8 | 12.9 | 0.00 | 0.15 | 0.03 | 90 | 1009.2 |
| 20260507061538 | 17 | 258 | 6.4 | 16.1 | 0.00 | 0.15 | 0.03 | 90 | 1009.2 |
| 20260507060044 | 17 | 0 | 0.0 | 4.8 | 0.03 | 0.15 | 0.03 | 92 | 1009.2 |
| 20260507054535 | 18 | 0 | 0.0 | 0.0 | 0.03 | 0.15 | 0.03 | 92 | 1009.4 |
| 20260507053038 | 18 | 0 | 0.0 | 0.0 | 0.03 | 0.15 | 0.03 | 91 | 1009.9 |
| 20260507051542 | 18 | 0 | 0.0 | 0.0 | 0.03 | 0.15 | 0.03 | 90 | 1009.8 |
| 20260507050043 | 18 | 0 | 0.0 | 0.0 | 0.00 | 0.13 | 0.00 | 89 | 1009.9 |
| 20260507044537 | 18 | 0 | 0.0 | 0.0 | 0.00 | 0.13 | 0.00 | 89 | 1009.9 |
| 20260507043042 | 18 | 0 | 0.0 | 0.0 | 0.00 | 0.13 | 0.00 | 89 | 1009.7 |
| 20260507041537 | 18 | 0 | 0.0 | 0.0 | 0.00 | 0.13 | 0.00 | 88 | 1009.8 |
| 20260507040044 | 18 | 0 | 0.0 | 0.0 | 0.00 | 0.13 | 0.00 | 88 | 1009.8 |
| 20260507034553 | 18 | 0 | 0.0 | 0.0 | 0.00 | 0.13 | 0.13 | 88 | 1009.8 |
| 20260507033042 | 18 | 0 | 0.0 | 1.6 | 0.00 | 0.13 | 0.13 | 88 | 1009.8 |
| 20260507031543 | 18 | 0 | 0.0 | 4.8 | 0.00 | 0.13 | 0.13 | 88 | 1009.3 |
| 20260507030042 | 18 | 0 | 0.0 | 0.0 | 0.00 | 0.13 | 0.13 | 88 | 1009.1 |
| 20260507024551 | 18 | 223 | 0.0 | 3.2 | 0.00 | 0.13 | 0.13 | 87 | 1009.4 |
| 20260507023036 | 18 | 231 | 0.0 | 4.8 | 0.00 | 0.13 | 0.13 | 86 | 1009.3 |
| 20260507021548 | 18 | 0 | 0.0 | 6.4 | 0.00 | 0.13 | 0.13 | 85 | 1009.7 |
| 20260507020048 | 18 | 276 | 3.2 | 9.7 | 0.00 | 0.13 | 0.13 | 85 | 1009.9 |
| 20260507014543 | 18 | 253 | 1.6 | 6.4 | 0.00 | 0.13 | 0.13 | 84 | 1009.9 |
| 20260507013039 | 18 | 279 | 0.0 | 4.8 | 0.00 | 0.13 | 0.13 | 85 | 1009.4 |
| 20260507011542 | 18 | 0 | 0.0 | 4.8 | 0.00 | 0.13 | 0.13 | 84 | 1009.2 |
| 20260507010042 | 19 | 0 | 1.6 | 11.3 | 0.00 | 0.13 | 0.13 | 82 | 1009.4 |
| 20260507004540 | 19 | 267 | 3.2 | 6.4 | 0.00 | 0.13 | 0.13 | 82 | 1009.5 |
| 20260507003041 | 19 | 264 | 0.0 | 6.4 | 0.00 | 0.13 | 0.13 | 82 | 1009.5 |
| 20260507001546 | 20 | 243 | 3.2 | 14.5 | 0.00 | 0.13 | 0.13 | 80 | 1009.5 |
| 20260507000037 | 20 | 256 | 3.2 | 12.9 | 0.00 | 0.13 | 0.13 | 80 | 1009.4 |
| 20260506234535 | 20 | 220 | 3.2 | 14.5 | 0.00 | 0.13 | 0.13 | 79 | 1009.2 |
| 20260506233048 | 21 | 238 | 3.2 | 12.9 | 0.00 | 0.13 | 0.13 | 79 | 1009.1 |
| 20260506231538 | 21 | 231 | 3.2 | 16.1 | 0.00 | 0.13 | 0.13 | 79 | 1009.2 |
| 20260506230045 | 21 | 256 | 6.4 | 16.1 | 0.00 | 0.13 | 0.13 | 79 | 1009.1 |
| 20260506224536 | 21 | 242 | 4.8 | 16.1 | 0.00 | 0.13 | 0.13 | 78 | 1009.2 |
| 20260506223039 | 21 | 217 | 6.4 | 14.5 | 0.00 | 0.13 | 0.13 | 78 | 1009.1 |
| 20260506221545 | 21 | 275 | 9.7 | 20.9 | 0.00 | 0.13 | 0.13 | 78 | 1009.3 |
| 20260506220049 | 21 | 261 | 6.4 | 16.1 | 0.00 | 0.13 | 0.13 | 78 | 1009.5 |
| 20260506214537 | 21 | 234 | 8.0 | 17.7 | 0.00 | 0.13 | 0.13 | 78 | 1009.5 |
| 20260506213036 | 20 | 246 | 6.4 | 19.3 | 0.00 | 0.13 | 0.13 | 79 | 1009.5 |
| 20260506211544 | 20 | 274 | 8.0 | 20.9 | 0.00 | 0.13 | 0.13 | 79 | 1009.4 |
| 20260506210035 | 20 | 198 | 6.4 | 19.3 | 0.00 | 0.13 | 0.13 | 79 | 1009.3 |
| 20260506204538 | 20 | 278 | 3.2 | 16.1 | 0.00 | 0.13 | 0.13 | 81 | 1009.4 |
| 20260506203036 | 19 | 307 | 6.4 | 17.7 | 0.00 | 0.13 | 0.13 | 81 | 1009.1 |
| 20260506201536 | 19 | 235 | 8.0 | 20.9 | 0.00 | 0.13 | 0.13 | 80 | 1009.3 |
| 20260506200036 | 19 | 280 | 9.7 | 19.3 | 0.00 | 0.13 | 0.13 | 80 | 1009.3 |
| 20260506194538 | 19 | 278 | 9.7 | 27.4 | 0.00 | 0.13 | 0.13 | 80 | 1009.5 |
| 20260506193038 | 19 | 262 | 9.7 | 24.1 | 0.00 | 0.13 | 0.13 | 81 | 1009.6 |
| 20260506191537 | 19 | 238 | 8.0 | 22.5 | 0.00 | 0.13 | 0.13 | 82 | 1010.1 |
| 20260506190038 | 19 | 252 | 6.4 | 14.5 | 0.00 | 0.13 | 0.13 | 82 | 1010.3 |
| 20260506184544 | 19 | 261 | 6.4 | 20.9 | 0.00 | 0.13 | 0.13 | 82 | 1010.2 |
| 20260506183044 | 19 | 321 | 6.4 | 16.1 | 0.00 | 0.13 | 0.13 | 81 | 1010.3 |
| 20260506181540 | 19 | 92 | 3.2 | 20.9 | 0.00 | 0.13 | 0.13 | 82 | 1010.4 |
| 20260506180038 | 18 | 271 | 4.8 | 19.3 | 0.00 | 0.13 | 0.13 | 83 | 1010.6 |
| 20260506174538 | 18 | 223 | 4.8 | 24.1 | 0.00 | 0.13 | 0.13 | 84 | 1010.6 |
| 20260506173055 | 18 | 230 | 8.0 | 17.7 | 0.00 | 0.13 | 0.13 | 84 | 1010.7 |
| 20260506171542 | 18 | 269 | 6.4 | 20.9 | 0.00 | 0.13 | 0.13 | 87 | 1010.7 |
| 20260506170046 | 17 | 233 | 4.8 | 14.5 | 0.00 | 0.13 | 0.13 | 88 | 1011.1 |
| 20260506164536 | 17 | 291 | 4.8 | 16.1 | 0.00 | 0.13 | 0.13 | 91 | 1011.1 |
| 20260506163035 | 16 | 295 | 6.4 | 19.3 | 0.03 | 0.13 | 0.13 | 91 | 1011.0 |
| 20260506161538 | 16 | 267 | 6.4 | 14.5 | 0.10 | 0.13 | 0.13 | 91 | 1011.2 |
| 20260506160035 | 16 | 322 | 4.8 | 19.3 | 0.13 | 0.13 | 0.13 | 91 | 1011.4 |
| 20260506154541 | 16 | 0 | 6.4 | 19.3 | 0.13 | 0.13 | 0.13 | 90 | 1011.5 |
| 20260506153042 | 16 | 275 | 4.8 | 16.1 | 0.10 | 0.10 | 0.10 | 89 | 1011.7 |
| 20260506151534 | 17 | 266 | 8.0 | 20.9 | 0.03 | 0.03 | 0.03 | 85 | 1012.2 |
| 20260506150045 | 17 | 94 | 4.8 | 17.7 | 0.00 | 0.00 | 0.00 | 82 | 1012.3 |
| 20260506144558 | 18 | 300 | 9.7 | 25.7 | 0.00 | 0.00 | 0.00 | 77 | 1012.3 |
| 20260506143049 | 18 | 219 | 6.4 | 20.9 | 0.00 | 0.00 | 0.00 | 74 | 1012.0 |
| 20260506141536 | 18 | 246 | 8.0 | 16.1 | 0.00 | 0.00 | 0.00 | 73 | 1011.9 |
| 20260506140053 | 18 | 336 | 6.4 | 20.9 | 0.00 | 0.00 | 0.00 | 74 | 1011.8 |
| 20260506134536 | 18 | 213 | 3.2 | 17.7 | 0.00 | 0.00 | 0.00 | 73 | 1012.0 |
| 20260506133040 | 19 | 292 | 8.0 | 19.3 | 0.00 | 0.00 | 0.00 | 70 | 1011.8 |
| 20260506131543 | 19 | 268 | 4.8 | 17.7 | 0.00 | 0.00 | 0.00 | 70 | 1011.8 |
| 20260506130045 | 18 | 213 | 3.2 | 30.6 | 0.00 | 0.00 | 0.00 | 71 | 1011.8 |
| 20260506124536 | 18 | 355 | 6.4 | 16.1 | 0.00 | 0.00 | 0.00 | 71 | 1011.7 |
| 20260506123046 | 18 | 271 | 6.4 | 19.3 | 0.00 | 0.00 | 0.00 | 71 | 1011.8 |
| 20260506121550 | 18 | 146 | 6.4 | 22.5 | 0.00 | 0.00 | 0.00 | 72 | 1011.7 |
| 20260506120040 | 18 | 225 | 6.4 | 17.7 | 0.00 | 0.00 | 0.00 | 72 | 1012.1 |
| 20260506114535 | 18 | 123 | 3.2 | 22.5 | 0.00 | 0.00 | 0.00 | 72 | 1011.9 |
| 20260506113039 | 17 | 263 | 6.4 | 17.7 | 0.00 | 0.00 | 0.00 | 72 | 1012.0 |
| 20260506111541 | 17 | 288 | 4.8 | 19.3 | 0.00 | 0.00 | 0.00 | 73 | 1011.9 |
| 20260506110042 | 17 | 257 | 6.4 | 16.1 | 0.00 | 0.00 | 0.00 | 73 | 1011.8 |
| 20260506104536 | 17 | 311 | 3.2 | 19.3 | 0.00 | 0.00 | 0.00 | 73 | 1011.6 |
| 20260506103035 | 17 | 260 | 6.4 | 17.7 | 0.00 | 0.00 | 0.00 | 74 | 1011.4 |